{"data":{"norad_id":66678,"intl_designator":"2025-276N","name":"OTTER SDM","alt_names":[],"object_type":"PAYLOAD","status":"ACTIVE","operator":null,"country":"GER","launch_date":"2025-11-28","launch_site_code":"AFWTR","launch_vehicle":null,"mission":null,"orbit_class":"UNKNOWN","rcs_meters":null,"size_class":null,"mass_kg":null,"dimensions":null,"purposes":["earth_obs"],"wikipedia_slug":null,"has_3d_model":false,"image_url":null,"decayed_at":null,"tle_current":{"epoch":"2026-09-20T03:52:59.500128Z","epoch_age_seconds":44347,"freshness":"FRESH","line1":"1 66678U 25276N   26263.16179977  .00004311  00000+0  19890-3 0  9999","line2":"2 66678  97.4129 335.0859 0006402  40.4261 319.7449 15.20744609 44844","mean_motion":15.20744609,"eccentricity":0.0006402,"inclination_deg":97.4129,"raan_deg":335.0859,"arg_perigee_deg":40.4261,"mean_anomaly_deg":319.7449,"bstar":0.0001989,"rev_number":4484,"period_min":94.690455680583,"perigee_km":499.18765801657,"apogee_km":507.99902554618,"semimajor_km":6881.7303417814,"source":"CELESTRAK","updated_at":"2026-09-20T09:00:34.878824Z"}}}